Вернуться в каталог

METEOR 2-11 DEB

АктивенPO
NORAD 40704·DEBRIS·🇷🇺 Russia

Запущен Jul 5, 1984 с Plesetsk Cosmodrome

Loading…

Ближайшие Пролёты (ближайшие 24 часа)

TLE

СвежийSource: Space-Track

Эпоха: Sep 11, 2026, 09:59 UTC

1 40704U 84072F   26254.41627072  .00001014  00000-0  68472-3 0  9990
2 40704  82.5167 295.0313 0030912  80.5079 279.9581 13.99344436579449

Отслеживайте METEOR 2-11 DEB в реальном времени с AllMySat

Download on the App Store